Wind_Speed
19 20 20 20 19 18 18 16 15 13 12 10 9 10 11 13 13 10 6 5 6 6 3 1 2 3 2 1 1 2 0 1 2 3 3 2 4 3 4 7 3 3 4 11 24
20 21 20 20 21 20 19 17 15 13 10 8 8 9 11 13 11 7 6 8 6 11 3 1 2 3 2 2 2 1 1 2 2 3 2 2 4 6 4 5 4 6 11 24 25
21 21 22 21 21 21 20 20 16 11 8 7 7 8 10 11 3 2 1 11 12 7 3 1 2 2 2 1 2 2 2 3 5 6 5 2 4 5 4 2 7 10 17 21 22
23 23 23 22 21 22 21 22 17 10 7 6 6 6 9 3 3 2 5 12 13 9 3 2 2 2 2 4 0 3 7 5 7 3 6 4 3 4 7 2 3 14 20 22 18
24 24 24 24 22 23 23 22 16 9 5 5 4 5 2 1 3 6 3 17 15 10 4 2 2 1 3 4 3 4 6 6 9 6 5 7 5 2 5 5 11 16 19 20 18
25 25 25 25 24 24 24 22 14 6 3 3 2 2 1 1 0 4 8 17 11 7 3 2 1 2 2 3 2 6 9 12 6 2 3 4 1 2 3 13 16 18 19 18 18
26 26 26 26 26 26 24 20 9 3 1 2 0 2 1 2 3 9 9 8 9 6 3 3 2 2 3 4 4 5 6 6 6 2 2 3 5 6 7 13 17 17 16 17 18
27 27 27 27 26 27 25 14 3 1 1 1 2 1 4 2 3 4 8 5 9 6 3 2 2 2 1 5 2 4 2 6 6 6 1 5 7 2 12 15 16 17 16 16 19
27 28 28 27 27 28 22 3 3 3 3 4 2 1 1 2 3 3 7 5 6 6 2 1 2 3 1 4 3 6 5 8 7 5 4 4 8 3 8 12 14 16 16 16 16
27 28 28 27 27 28 10 3 4 3 2 1 0 2 1 1 1 4 8 6 3 7 4 2 3 1 2 4 3 5 6 7 6 5 5 4 14 14 6 14 15 15 16 16 17
27 28 28 27 27 21 3 3 2 2 2 3 2 3 2 4 2 3 5 5 2 4 4 3 4 7 5 4 2 4 6 8 7 4 3 10 14 20 17 7 10 8 7 13 19
27 29 28 26 27 10 4 0 4 3 5 3 6 6 6 3 3 3 7 3 2 5 3 4 8 6 2 2 4 5 8 6 10 5 3 10 17 17 22 17 12 9 9 14 15
28 29 27 26 21 2 5 4 2 4 2 2 3 3 2 6 4 8 7 3 3 5 3 9 2 4 3 3 3 6 6 3 4 7 7 5 4 20 20 17 18 17 15 13 17
28 28 28 25 4 9 3 4 12 8 2 2 2 2 5 3 2 1 5 2 2 5 4 3 1 6 7 7 7 6 5 6 4 2 5 5 2 20 19 17 23 22 20 18 10
27 28 28 20 11 3 3 8 3 2 2 3 3 1 1 4 4 3 0 2 4 4 4 1 3 5 6 5 6 4 2 2 2 1 3 7 3 11 14 18 24 23 23 21 16
29 29 25 9 6 5 4 2 3 2 3 4 4 5 6 1 2 3 2 4 3 3 1 7 1 4 4 3 7 2 2 1 2 1 4 10 1 13 13 18 21 21 21 20 19
31 25 16 7 2 2 5 3 2 2 1 5 4 6 7 4 3 3 8 8 3 3 4 3 4 3 4 4 3 5 4 3 1 2 4 1 8 4 14 15 16 18 20 20 19
29 18 7 7 2 8 1 2 3 1 2 0 4 7 7 6 3 3 6 8 4 4 2 3 4 2 2 3 3 5 3 1 2 3 3 1 5 6 13 14 16 16 17 18 21
20 6 2 5 9 5 2 3 3 4 1 1 4 4 4 4 3 4 7 6 7 13 6 3 2 3 9 2 3 5 3 2 5 1 2 1 3 5 14 17 19 21 23 25 23
11 3 5 4 11 1 1 2 3 3 3 2 5 4 8 7 8 7 7 2 3 10 10 2 2 4 3 2 12 2 7 2 1 2 2 3 1 1 12 16 18 21 21 21 21
3 1 10 14 3 1 2 4 4 5 5 3 1 3 4 4 3 4 4 2 2 2 9 6 3 2 1 7 3 1 1 5 3 3 1 3 3 2 5 9 13 15 15 17 18
2 2 1 8 2 1 2 3 2 4 2 3 1 2 3 3 4 3 4 2 5 5 8 3 3 2 4 3 3 3 3 2 3 3 2 3 4 5 4 7 10 13 13 13 13
2 1 1 4 2 2 2 3 3 3 3 3 2 3 2 3 4 2 1 2 6 3 5 7 1 4 4 4 2 3 4 3 4 1 2 3 3 6 4 4 7 10 12 13 14
1 2 1 2 1 0 2 2 3 1 0 1 2 2 3 3 4 4 3 4 4 4 6 5 3 2 3 3 3 4 3 2 3 3 1 3 9 7 2 5 7 9 10 11 12
3 2 2 2 2 1 1 2 2 2 1 4 4 4 3 3 2 3 1 2 4 4 3 1 3 4 6 4 5 5 3 0 2 2 4 5 6 3 4 7 9 9 8 10 12
3 2 1 1 1 3 2 3 2 1 3 2 5 3 2 4 1 4 3 1 2 4 3 2 4 4 3 5 6 5 4 6 7 7 6 4 4 1 3 6 8 11 10 9 10
3 0 2 2 1 2 2 1 1 3 5 5 6 5 9 5 3 4 3 3 2 1 2 2 7 4 4 6 2 4 5 3 3 2 2 4 2 1 4 8 9 12 12 9 12
Wind_Direction
9 7 4 360 355 350 345 337 329 322 319 319 317 318 320 318 317 300 249 212 179 133 137 106 100 103 87 122 143 128 103 241 250 222 346 150 164 125 108 132 124 103 130 138 152
8 5 2 358 356 351 347 341 333 325 323 321 316 322 324 325 317 260 253 209 184 186 150 56 15 352 93 92 138 237 346 306 199 249 288 212 233 166 156 139 125 100 107 137 150
5 3 360 356 355 353 350 344 336 327 325 317 317 325 328 330 268 238 15 184 170 158 155 32 42 359 36 110 147 147 262 298 276 253 209 181 232 178 156 200 192 171 148 153 158
4 0 358 357 353 351 347 343 338 330 322 310 317 332 331 343 115 306 319 192 181 174 169 80 34 16 14 343 285 273 249 260 288 177 160 197 193 172 204 92 143 162 158 159 170
359 358 355 354 350 349 345 340 335 328 313 304 324 348 18 249 264 346 39 156 163 169 181 150 62 358 359 314 297 229 307 302 278 288 203 156 229 6 223 166 130 148 159 171 175
356 353 354 352 349 346 342 335 330 317 297 292 326 9 35 140 323 91 130 152 169 166 155 153 72 6 261 277 288 308 288 296 325 5 172 212 350 316 80 140 143 158 170 177 181
353 353 352 349 346 343 340 333 326 297 241 251 285 30 206 163 102 130 128 180 185 182 152 201 175 337 313 298 331 299 317 10 20 80 114 184 248 233 154 156 154 171 178 184 191
351 349 349 347 344 341 339 334 336 182 171 174 143 56 253 233 212 181 153 142 185 177 172 195 235 117 284 309 331 3 38 354 349 14 53 213 288 352 176 166 172 178 182 191 197
349 347 346 345 342 342 337 359 106 102 120 130 72 329 249 306 268 212 179 147 154 178 181 166 74 46 357 354 334 30 336 348 339 42 106 237 289 53 182 190 184 185 190 195 203
347 344 343 343 341 343 355 123 117 111 112 83 285 228 266 94 98 140 161 140 152 143 147 65 57 358 46 344 304 335 332 327 298 334 357 247 268 334 235 207 206 196 196 199 205
345 341 340 341 339 342 37 104 238 158 181 264 307 285 294 322 175 159 154 139 99 80 154 37 245 265 308 269 297 294 291 293 294 285 277 43 36 15 360 255 286 287 251 230 218
342 340 337 340 336 339 15 220 91 66 310 234 250 271 260 260 131 131 157 142 125 133 142 196 248 285 209 228 266 276 289 286 284 238 281 89 50 45 40 37 7 316 266 245 249
340 337 335 339 336 53 326 155 145 322 257 294 221 224 188 179 150 168 179 139 124 149 149 222 169 130 297 292 241 241 241 280 294 323 92 331 79 23 19 34 26 15 5 331 251
338 335 333 339 357 332 268 184 309 179 317 143 216 175 154 192 157 174 178 145 105 187 143 275 224 247 268 253 214 307 212 273 282 301 344 342 60 26 358 16 18 10 4 355 294
335 331 328 332 294 249 172 321 132 181 143 137 141 56 130 189 126 158 187 92 162 151 183 181 208 212 244 249 190 283 353 344 11 38 273 29 74 10 10 4 5 2 1 2 360
334 329 322 318 279 241 272 348 163 253 122 147 130 156 154 130 92 104 147 69 83 157 241 262 277 261 251 219 224 127 220 94 97 173 82 357 266 31 12 352 353 0 5 3 359
332 323 298 258 219 165 345 173 245 224 297 155 155 167 172 159 174 144 170 192 198 188 234 281 225 230 214 213 160 193 261 302 182 78 61 312 66 51 357 4 4 2 5 8 7
331 323 301 245 161 244 263 153 229 166 253 103 122 132 182 156 160 134 150 206 208 187 303 313 130 345 168 268 173 176 234 8 10 8 64 13 123 112 23 20 17 18 15 16 19
337 338 345 355 201 160 170 190 240 204 336 18 126 147 167 192 181 166 196 201 215 192 210 181 92 105 67 75 297 145 164 58 112 95 169 93 118 174 6 14 15 15 17 18 16
338 342 12 335 157 174 132 244 260 227 300 203 199 189 175 172 187 192 180 166 224 203 216 175 206 15 33 206 57 15 126 163 104 175 153 139 173 46 358 359 11 17 18 16 17
7 112 5 110 122 72 200 240 272 258 234 213 183 146 113 142 177 178 175 127 20 78 199 175 248 109 297 26 349 98 112 66 99 342 241 212 131 41 360 1 5 15 16 18 21
340 119 311 348 133 13 202 211 309 283 189 265 166 73 107 115 130 150 181 306 350 190 162 157 110 86 111 108 35 52 77 41 297 143 68 325 122 81 40 31 21 18 22 26 31
46 77 110 341 169 196 280 272 269 291 4 339 99 33 53 117 117 130 138 63 11 159 149 168 112 132 178 183 147 66 43 69 98 152 186 269 136 143 88 49 20 13 10 15 19
251 133 102 74 13 72 346 290 289 222 49 27 78 153 129 81 39 128 115 19 10 80 66 89 109 238 265 66 92 132 55 10 283 265 264 268 148 172 31 357 1 1 1 3 6
8 68 4 175 170 206 266 308 292 186 98 34 104 55 101 105 82 92 132 174 95 14 80 169 109 94 62 86 91 100 72 187 157 125 266 131 152 137 357 339 342 344 349 1 7
17 347 15 84 246 172 181 199 233 161 334 31 91 55 58 107 47 156 153 40 29 20 66 24 122 132 85 84 115 123 120 104 99 116 105 138 165 117 322 331 350 351 341 342 351
18 27 284 13 106 191 143 300 139 169 54 53 107 89 75 61 43 50 46 79 82 15 87 80 148 175 147 141 147 204 170 153 123 181 166 214 92 323 318 330 335 327 319 315 331
Height
825 821 818 815 811 808 805 802 799 797 795 795 794 793 793 791 789 787 785 781 782 784 784 785 785 786 786 786 786 788 804 810 804 804 794 785 788 783 784 789 790 792 794 798 808
824 821 818 814 811 807 803 800 798 795 794 793 792 792 791 789 786 784 779 778 780 783 785 784 783 784 785 787 787 792 805 800 789 787 789 786 786 784 789 792 795 797 798 803 808
824 821 817 813 809 806 802 799 796 793 792 791 791 790 789 787 787 778 777 778 781 783 784 784 784 783 787 787 789 794 801 788 779 776 779 784 786 780 787 795 789 794 799 804 809
824 820 816 812 808 804 800 797 794 792 790 790 789 789 788 787 795 777 776 777 780 782 784 784 784 787 791 794 787 797 784 783 776 774 778 783 779 784 785 786 782 788 795 802 807
823 819 815 811 807 803 799 795 792 790 789 788 788 788 788 786 782 777 774 776 781 783 784 785 787 790 796 792 790 794 782 776 772 773 773 775 780 783 783 781 783 791 797 799 803
822 817 813 809 805 800 796 792 789 788 788 787 787 788 789 787 779 778 778 779 781 783 784 784 785 786 790 791 791 783 782 778 772 772 774 780 783 780 780 779 785 791 795 798 802
820 816 811 807 802 798 794 789 787 787 787 787 787 787 788 780 778 779 780 780 781 782 783 785 786 786 786 789 782 782 786 777 778 776 780 777 786 783 775 778 785 790 793 797 800
818 814 809 805 800 795 791 787 786 786 786 786 787 787 783 775 777 779 780 780 781 783 784 784 785 784 786 783 784 791 788 804 782 780 782 781 791 775 772 778 783 787 792 796 797
816 811 807 802 797 792 787 785 786 786 787 787 788 788 780 774 776 775 778 780 781 783 784 784 783 789 788 795 796 799 812 809 795 782 786 788 787 778 774 776 780 784 788 791 795
814 809 804 800 795 790 786 786 786 787 787 788 788 789 775 776 774 775 777 779 780 782 784 784 788 794 797 800 821 818 815 807 811 788 785 790 787 776 778 774 774 779 782 785 787
811 806 802 797 793 789 788 787 790 789 788 780 780 779 775 774 774 775 776 778 778 780 793 794 799 807 803 805 807 811 814 815 794 788 791 797 803 797 781 781 785 789 793 788 782
808 804 799 795 791 787 787 787 787 790 786 779 780 779 775 774 776 775 776 780 784 796 795 800 806 796 801 805 808 810 813 806 793 789 789 799 805 798 794 792 788 786 785 786 785
806 801 796 793 788 787 786 787 786 787 788 779 776 775 772 773 774 775 774 780 788 796 798 802 798 799 803 804 811 806 808 802 805 790 791 791 806 801 795 794 794 790 787 783 778
803 798 793 790 790 787 786 785 784 784 792 784 778 771 771 770 777 772 773 776 787 795 798 799 792 799 801 804 800 801 794 798 801 802 813 802 816 809 806 798 796 793 788 782 772
800 795 791 789 788 787 786 784 783 785 811 780 776 768 770 773 773 776 774 774 790 794 797 799 797 799 801 793 792 794 789 795 798 804 807 807 813 821 811 809 805 799 791 784 778
795 791 787 786 785 783 783 782 784 797 811 783 772 776 778 775 776 776 776 774 780 791 795 794 786 788 785 784 786 787 792 800 806 807 824 824 817 827 828 827 814 805 797 790 781
790 785 782 783 782 780 781 783 798 804 778 785 779 775 778 784 781 779 785 790 797 811 809 794 791 782 781 790 788 790 794 815 820 819 830 823 822 842 827 821 819 812 803 794 785
784 779 777 778 778 779 781 786 811 786 783 769 774 778 784 780 783 786 791 796 794 796 804 808 806 786 778 781 783 790 787 810 841 832 828 825 836 837 821 816 814 810 806 799 790
779 776 776 776 776 779 780 799 789 784 774 774 775 782 785 781 781 785 789 789 782 785 805 807 802 779 778 776 782 795 796 795 815 831 823 832 826 822 818 818 816 811 803 797 794
777 777 777 775 777 779 782 800 787 776 770 770 781 774 786 784 785 786 791 781 782 779 773 791 805 786 780 777 780 785 792 802 805 831 837 835 839 830 833 829 822 817 812 808 802
777 775 779 777 779 778 789 789 783 768 770 772 773 776 777 784 784 788 788 781 778 781 780 784 792 795 784 798 804 793 796 807 806 815 822 828 831 831 835 833 830 824 820 815 811
779 778 781 780 783 796 787 785 780 769 764 765 764 769 773 781 787 788 788 787 778 777 787 784 791 809 806 798 797 798 806 804 805 824 829 822 835 830 832 831 829 826 823 820 817
781 782 782 782 787 788 786 781 776 770 771 769 769 768 773 780 789 785 785 778 777 776 782 782 800 817 812 802 799 803 809 811 806 809 823 823 829 827 831 832 830 828 824 819 816
784 782 783 784 788 785 786 782 779 768 771 772 772 770 775 783 783 788 786 780 779 780 787 780 802 799 803 807 804 813 815 815 807 810 814 816 832 831 832 832 828 827 825 822 820
786 788 791 784 785 786 785 785 780 777 770 770 773 776 774 786 787 790 786 782 779 785 784 783 803 809 814 811 811 819 821 819 816 823 822 825 828 833 833 832 829 826 824 823 821
790 791 790 788 790 788 792 781 779 779 776 773 774 779 776 782 783 788 785 787 789 781 787 788 809 809 822 819 817 827 826 823 822 826 828 827 831 831 830 828 827 825 824 823 822
797 797 795 793 787 784 784 779 776 776 775 772 775 777 782 785 783 783 783 785 785 789 792 795 804 810 822 824 824 828 826 825 828 828 824 830 827 830 829 829 828 827 823 822 822